Location: Unspecified
(56.5167°N, 0.0000°E)
Time: 11:04:19
(UTC+02:00)

Resurs 1-4 Rocket - Pass Details

Date: 11 August 2020
Orbit: 799 x 815 km, 98.6° (Epoch: 23 September)

Event Time Altitude Azimuth Distance (km) Brightness Sun altitude
Rises 03:29:19 0° 18° (NNE) 3,337 7.2 -16.2°
Reaches altitude 10° 03:31:43 10° 23° (NNE) 2,399 5.9 -16.1°
Maximum altitude 03:36:56 56° 101° (E) 957 2.5 -15.8°
Enters shadow 03:40:30 20° 174° (S) 1,783 3.4 -15.6°
